Regional Weather Roundup
Issued by NWS Wakefield, VA

Home | Current Version | Previous Version | Text Only | Print | Product List | Glossary Off
Versions: 1 2 3 4 5 6 7 8 9 10 11 12 13 14 15 16 17 18 19 20 21 22 23 24 25 26 27 28 29 30 31 32 33 34 35 36 37 38 39 40 41 42 43 44 45 46 47 48 49 50

000
ASUS41 KAKQ 200710
RWRAKQ

REGIONAL WEATHER ROUNDUP
NATIONAL WEATHER SERVICE WAKEFIELD VA
200 AM EST SAT DEC 20 2014

Note: "fair" indicates few or no clouds below 12,000 feet with no
significant weather and/or obstructions to visibility. * = Denotes
station may not report precipitation (e.g., rain,snow,etc.),
thunder or fog.

VAZ042-051-052>054-056-200800-
NORTHERN VIRGINIA

CITY           SKY/WX    TMP DP  RH WIND       PRES   REMARKS
WASH NATIONAL  CLEAR     34  20  56 NW8       30.26R
DULLES         CLEAR     26  20  77 CALM      30.25R
FORT BELVOIR   CLEAR     23  21  91 CALM      30.27R
QUANTICO       CLEAR     26  22  84 NW6       30.28R
FREDERICKSBRG* CLEAR     28  23  84 CALM      30.26R
STAFFORD*      CLEAR     25  20  82 CALM      30.30S
WARRENTON      CLEAR     21  21 100 CALM      30.24S
CULPEPER*      CLEAR     21  19  93 CALM      30.25R
MANASSAS*      CLEAR     21  21 100 CALM      30.26R
LEESBURG*      CLEAR     30  25  80 N5        30.25R
WINCHESTER     CLEAR     27  18  69 CALM      30.24R
FRONT ROYAL*   SUNNY     25  21  86 SW6       30.24S
LURAY*         SUNNY     23  23 100 CALM      30.24S
$$

VAZ048-049-060>072-079>083-200800-
CENTRAL AND SOUTH CENTRAL VIRGINIA

CITY           SKY/WX    TMP DP  RH WIND       PRES   REMARKS
RICHMOND       PTCLDY    32  21  64 N3        30.25S
CHESTERFIELD*  PTSUNNY   32  14  47 CALM      30.27R
PETERSBURG*    MOCLDY    28  25  91 CALM      30.27R
HANOVER        PTCLDY    27  22  81 CALM      30.27R
TAPPAHANNOCK*  PTCLDY    27  21  76 CALM      30.26R
QUINTON*       MOSUNNY   31  23  72 CALM      30.26R
CHARLOTTSVILLE CLEAR     27  21  78 CALM      30.23R
GORDONSVILLE*  SUNNY     21  20  93 CALM      30.25R
ORANGE*        CLEAR     23  21  93 CALM      30.26R
LOUISA*        CLEAR     25  21  86 CALM      30.23R
BUMPASS*       SUNNY     27  22  80 CALM      30.24S
FARMVILLE*     PTCLDY    26  22  84 CALM      30.26R
CREWE*         PTSUNNY   27  24  85 CALM      30.25R
FORT PICKETT*  PTSUNNY   30  23  75 CALM      30.25S
CHASE CITY*    PTSUNNY   33  28  81 CALM      30.24S
CLARKSVILLE*   PTSUNNY   34  27  75 E8        30.24R
SOUTH HILL*    MOCLDY    30  25  82 CALM      30.31R
LAWRENCEVILLE* PTSUNNY   31  25  78 CALM      30.25S
EMPORIA*       CLOUDY    28  27  93 CALM      30.28S
$$

VAZ088>098-200800-
SOUTHEAST VIRGINIA

CITY           SKY/WX    TMP DP  RH WIND       PRES   REMARKS
NORFOLK        PTCLDY    38  28  67 N9        30.23S
VIRGINIA BEACH PTCLDY    32  27  81 CALM      30.23S
NORFOLK NAVAL  MOCLDY    40  27  59 N10       30.25S
WEST POINT*    PTCLDY    28  24  86 CALM      30.27S
SALUDA*        FAIR      33  26  74 NW3       30.25R
NEWPORT NEWS   PTCLDY    34  25  69 N6        30.25R
LANGLEY AFB    PTCLDY    33  26  73 NW6       30.25S
FORT EUSTIS    MOCLDY    34  24  68 VRB2      30.24R
WILLIAMSBURG*  MOCLDY    32  27  80 CALM      30.26S
HR EXEC AP*    MOSUNNY   27  23  86 CALM      30.27R
FRANKLIN*      MOCLDY    28  27  93 CALM      30.26S
WAKEFIELD      MOCLDY    28  24  85 CALM      30.26R
$$

VAZ020-022-025-037-045-200800-
WEST CENTRAL AND SOUTHWEST VIRGINIA

CITY           SKY/WX    TMP DP  RH WIND       PRES   REMARKS
STAUNTON*      CLEAR     23  19  85 CALM      30.24R
WAYNESBORO*    SUNNY     23  20  87 NW5       30.20S
HOT SPRINGS VA PTCLDY    23  19  85 W3        30.06R
LYNCHBURG      PTCLDY    27  22  81 CALM      30.24S
DANVILLE       CLOUDY    35  26  69 NE9       30.24R
SOUTH BOSTON*  PTSUNNY   32  25  76 CALM      30.25S
MARTINSVILLE   MOCLDY    35  25  67 CALM      30.25R
ROANOKE        PTCLDY    32  22  66 CALM      30.24S
BLACKSBURG     MOCLDY    27  22  82 CALM      30.20S
DUBLIN*        PTCLDY    30  26  86 CALM      30.18S
MARION*        CLOUDY    30  25  82 E3        30.16F
HILLSVILLE*    MOCLDY    31  23  72 CALM      30.14F
RICHLANDS*     CLOUDY    28  22  79 CALM      30.11F
WISE*          CLOUDY    30  27  86 NE3       30.11F
ABINGDON*      CLOUDY    33  28  80 E7        30.11F
$$

MDZ021>025-VAZ099-100-200800-
SOUTHERN MARYLAND AND THE DELMARVA PENINSULA

CITY           SKY/WX    TMP DP  RH WIND       PRES   REMARKS
PATUXENT RIVER CLEAR     32  22  66 NW10      30.25R WCI  24
BAY BRIDGE APT   N/A     32  23  69 NW8       30.24R
LEONARDTOWN    CLEAR     27  21  80 CALM      30.26R
DOVER          CLEAR     29  23  76 W6        30.19S
GEORGETOWN     CLEAR     30  22  72 NW3       30.22S
EASTON         CLEAR     32  27  80 W3        30.27R
CAMBRIDGE      CLEAR     34  27  75 NW5       30.23R
SALISBURY      CLEAR     31  23  72 W3        30.23R
OCEAN CITY     CLEAR     28  22  78 NW5       30.23R
WALLOPS ISLAND CLEAR     29  24  82 N6        30.24R
ACCOMACK*      CLEAR     32  27  80 CALM      30.24R
$$

NCZ012>017-030>032-200800-
NORTH CENTRAL AND EASTERN NORTH CAROLINA

CITY           SKY/WX    TMP DP  RH WIND       PRES   REMARKS
ROANOKE RAPIDS PTSUNNY   32  27  80 NE3       30.26R
RALEIGH        CLOUDY    37  30  75 NE3       30.23S
ELIZABETH CITY MOCLDY    37  29  72 NW6       30.25R
AHOSKIE*       CLOUDY    30  28  90 CALM      30.26F
EDENTON*         N/A     34  30  86 NE3       30.24S
CURRITUCK*     MOCLDY    34  30  85 CALM      30.25R
KILL DEVIL HLS MOCLDY    40  32  72 CALM      30.22R
MANTEO         MOCLDY    39  32  76 N5        30.24R
CAPE HATTERAS  PTCLDY    41  34  76 VRB6      30.22R
TARBORO*       PTSUNNY   32  30  93 N3        30.26S
GOLDSBORO      CLOUDY    37  36  97 CALM      30.21S
WASHINGTON     MOCLDY    33  31  92 N5        30.24S
GREENVILLE     MOCLDY    34  32  93 CALM      30.25R
NEW BERN       PTCLDY    38  32  79 NE3       30.23F
WILMINGTON     CLOUDY    43  34  70 NE5       30.21R
$$

VAZ048-200800-
ELSEWHERE

CITY           SKY/WX    TMP DP  RH WIND       PRES   REMARKS
HARRISBURG PA  CLOUDY    31  21  66 W9        30.22R
BALTIMORE      CLEAR     28  19  69 W3        30.23S
ANNAPOLIS      CLEAR     32  21  64 W6        30.24R
ANDREWS AFB    CLEAR     29  21  70 NW6       30.24S
PHILADELPHIA   CLOUDY    34  21  59 W3        30.22R
HENDERSON NC   MOCLDY    32  26  78 NE6       30.24S
GREENSBORO     CLOUDY    38  27  64 NE8       30.20S
ROCKY MOUNT    MOCLDY    34  30  85 N7        30.24S
$$

VAZ100-200800-
MARINE

STATION/POSITION TIME  TEMP    WIND        PRES    WAVE   SWELL
                       AIR SEA DIR/SP/G            HT/PER HT/PER
                 (UTC) (F)     (DEG/KT/KT) (MB)    (FT/S) (FT/S)
CAPE MAY NJ      0700   30 41   30/  1/  2 1022.7R
LEWES DE         0700   33 42  290/  7/  8 1022.8R
15NM E FENWICK I 0700   37 46              1022.4S   3/ 4
OCEAN-CITY-INLET 0700   33 42  340/  5/  7 1023.0R
WACHAPREAGUE VA  0700   32 41  320/  2/  3 1023.7R
THOMAS POINT MD  0700   33 41  310/ 10/ 12 1025.2R
GOOSES REEF MD   0700   35     VRB 12/ 14  1023.2R
COVE POINT MD    0700   34     350/ 15/ 18 1023.9S
SOLOMONS ISLAND  0700      43                N/A
BISHOPS HEAD MD  0700   31 37  320/  5/  6 1023.4R
POTOMAC MD       0700   34     350/  8/ 10 1023.2R
CAMBRIDGE MD     0700   35 40  320/  8/ 10 1023.7R
LEWISETTA VA     0700   35 43  350/  9/ 14 1024.1R
RAPPAHANNOCK LGT 0700          360/ 16/ 18 1024.4R
STINGRAY PT      0700   36     340/ 10/ 14 1024.5R
YORK RVR RNG VA  0700   37      10/ 12/ 15 1023.4S
YORKTOWN VA      0700   35 45  340/  8/  8 1024.0S
JAMESTOWN VA     0700   33     360/  2/  4   N/A
DOMINION TERM VA 0700   35     360/  6/  8 1024.1R
KIPTOPEKE VA     0700      49   20/  4/  4   N/A
CHES BAY BRIDGE  0700   39 45  350/ 13/ 15 1023.4R
CAPE HENRY VA    0700   39      10/ 14/ 17 1022.4R
CHESAPEAKE LGHT  0600   40     360/ 12/ 13 1024.0S
WILLOUBY STN VA  0700   37     350/  9/ 11 1024.3F
S CRANEY ISL VA  0700          350/  7/  9 1023.9S
CAPE HENRY BUOY  0700      48                N/A     3/ 4
1ST LANDING BUOY 0700   40      10/ 12/ 14 1023.2F
CAPE CHARLES BUO 0700      47                N/A     2/ 4   2/11
64NM E OF VA BCH 0700   43 54  350/ 12/ 16 1022.5F   3/ 5   2/ 9
DUCK PIER NC     0700   42 46   10/  9/ 11 1022.7R
44100 DUCK FRF   0700      52                N/A     3/ 5
44056 DUCK FRF   0700      47                N/A     3/ 6
OREGON INLET NC  0700   41 50  350/  5/  6 1023.5R
HATTERAS NC      0700   44 52   30/  8/ 11 1023.5R
DIAMOND SHLS NC  0700   46                 1023.2R   3/ 7
CAPE LOOKOUT NC  0600   45      10/  8/ 10 1022.7R
$$


USA.gov is the U.S. government's official web portal to all federal, state and local government web resources and services.